Simultaneous Nadir Overpasses (SNOs) Predictions

Prediction of SNOs between METOP-A and TERRA Satellite Orbit:

Table of predicted SNOs for the next 14.0 days since TLE Epoch: 6/2/2018
Index Date (METOP-A) Time (METOP-A) Lat,Lon (METOP-A) SZA (METOP-A ) Date (TERRA) Time (TERRA) Lat,Lon (TERRA) SZA (TERRA ) Distance(km) Time Diff (sec)
1 06/03/2018 16:58:58 -81.42, 154.63 117.76 06/03/2018 17:00:07 -81.42, 154.65 117.72 0.82 69
2 06/03/2018 17:49:39 81.42, -38.08 62.23 06/03/2018 17:49:34 81.41, -37.95 62.24 2.23 5
3 06/06/2018 12:33:15 -81.42,-139.19 118.12 06/06/2018 12:34:23 -81.41,-139.12 118.08 1.12 68
4 06/06/2018 13:23:55 81.42, 28.49 61.93 06/06/2018 13:23:49 81.42, 28.64 61.94 2.54 6
5 06/09/2018 08:07:32 -81.42, -72.63 118.37 06/09/2018 08:08:39 -81.42, -72.54 118.33 1.64 67
6 06/09/2018 08:58:12 81.42, 95.03 61.67 06/09/2018 08:58:05 81.42, 95.20 61.69 2.84 7
7 06/12/2018 03:41:50 -81.41, -6.49 118.63 06/12/2018 03:42:56 -81.41, -6.37 118.59 2.11 66
8 06/12/2018 04:32:30 81.42, 161.16 61.41 06/12/2018 04:32:22 81.41, 161.33 61.43 2.88 8
9 06/14/2018 23:16:06 -81.42, 60.03 118.79 06/14/2018 23:17:11 -81.41, 60.15 118.74 2.00 65




NCC Satellite Simultaneous Nadir Overpasses (SNOs) Prediction Service
